Location: DARK SKY Beskydy - Park tmavé oblohy, www.darkskybeskydy.cz
(49.4926°N, 18.5016°E)
Time: 11:18:07
(UTC+02:00)

BlueWalker 3 - Pass Details

Date: 21 June 2024
Orbit: 480 x 491 km, 53.2° (Epoch: 23 July)

Event Time Altitude Azimuth Distance (km) Brightness Sun altitude
Rises 00:34:45 0° 280° (W) 2,538 5.7 -17.0°
Reaches altitude 10° 00:36:59 10° 287° (WNW) 1,657 4.8 -17.0°
Maximum altitude 00:40:35 45° 1° (N) 660 3.0 -17.1°
Drops below altitude 10° 00:44:12 10° 76° (ENE) 1,656 4.7 -17.1°
Sets 00:46:26 0° 83° (E) 2,536 5.6 -17.1°
